Time,TemperatureF,DewpointF,PressureIn,WindDirection,WindDirectionDegrees,WindSpeedMPH,WindSpeedGustMPH,Humidity,HourlyPrecipIn,Conditions,Clouds,dailyrainin,SolarRadiationWatts/m^2,SoftwareType,DateUTC
2013-12-28 04:40:00,62.0,0.0,30.09,NE,36,5.0,6.0,8,-99.99,,,-99.99,0.000000,,2013-12-28 12:40:00,
2013-12-28 05:21:00,62.0,0.0,30.09,NE,36,5.0,6.0,8,-99.99,,,-99.99,0.000000,,2013-12-28 13:21:00,
2013-12-28 05:32:00,62.0,0.0,30.09,NE,36,5.0,6.0,8,-99.99,,,-99.99,0.000000,,2013-12-28 13:32:00,
2013-12-28 08:40:00,66.0,3.0,30.10,South,175,2.0,4.0,8,-99.99,,,-99.99,239.000000,,2013-12-28 16:40:00,
2013-12-28 10:40:00,67.0,9.0,30.10,SW,223,4.0,7.0,10,-99.99,,,-99.99,532.000000,,2013-12-28 18:40:00,
2013-12-28 11:21:00,67.0,9.0,30.10,SW,223,4.0,7.0,10,-99.99,,,-99.99,532.000000,,2013-12-28 19:21:00,
2013-12-28 11:32:00,67.0,9.0,30.10,SW,223,4.0,7.0,10,-99.99,,,-99.99,532.000000,,2013-12-28 19:32:00,
2013-12-28 11:40:00,66.0,10.0,30.07,WSW,258,4.0,7.0,11,-99.99,,,-99.99,590.000000,,2013-12-28 19:40:00,
2013-12-28 12:22:00,66.0,10.0,30.07,WSW,258,4.0,7.0,11,-99.99,,,-99.99,590.000000,,2013-12-28 20:22:00,
2013-12-28 12:32:00,66.0,10.0,30.07,WSW,258,4.0,7.0,11,-99.99,,,-99.99,590.000000,,2013-12-28 20:32:00,
2013-12-28 12:40:00,67.0,13.0,30.05,West,274,5.0,9.0,12,-99.99,,,-99.99,583.000000,,2013-12-28 20:40:00,
2013-12-28 13:21:00,67.0,13.0,30.05,West,274,5.0,9.0,12,-99.99,,,-99.99,583.000000,,2013-12-28 21:21:00,
2013-12-28 13:33:00,67.0,13.0,30.05,West,274,5.0,9.0,12,-99.99,,,-99.99,583.000000,,2013-12-28 21:33:00,
2013-12-28 13:40:00,68.0,13.0,30.02,SSW,199,5.0,8.0,12,-99.99,,,-99.99,513.000000,,2013-12-28 21:40:00,
2013-12-28 14:23:00,68.0,13.0,30.02,SSW,199,5.0,8.0,12,-99.99,,,-99.99,513.000000,,2013-12-28 22:23:00,
2013-12-28 14:33:00,68.0,13.0,30.02,SSW,199,5.0,8.0,12,-99.99,,,-99.99,513.000000,,2013-12-28 22:33:00,
2013-12-28 14:40:00,68.0,15.0,30.02,West,266,4.0,7.0,13,-99.99,,,-99.99,388.000000,,2013-12-28 22:40:00,
2013-12-28 15:22:00,68.0,15.0,30.02,West,266,4.0,7.0,13,-99.99,,,-99.99,388.000000,,2013-12-28 23:22:00,
2013-12-28 15:32:00,68.0,15.0,30.02,West,266,4.0,7.0,13,-99.99,,,-99.99,388.000000,,2013-12-28 23:32:00,
2013-12-28 15:40:00,65.0,16.0,30.03,West,273,4.0,6.0,15,-99.99,,,-99.99,216.000000,,2013-12-28 23:40:00,
2013-12-28 16:22:00,65.0,16.0,30.03,West,273,4.0,6.0,15,-99.99,,,-99.99,216.000000,,2013-12-29 00:22:00,
2013-12-28 16:31:00,65.0,16.0,30.03,West,273,4.0,6.0,15,-99.99,,,-99.99,216.000000,,2013-12-29 00:31:00,
2013-12-28 16:40:00,63.0,16.0,30.03,SSW,207,1.0,2.0,16,-99.99,,,-99.99,61.000000,,2013-12-29 00:40:00,
2013-12-28 17:22:00,63.0,16.0,30.03,SSW,207,1.0,2.0,16,-99.99,,,-99.99,61.000000,,2013-12-29 01:22:00,
2013-12-28 17:32:00,63.0,16.0,30.03,SSW,207,1.0,2.0,16,-99.99,,,-99.99,61.000000,,2013-12-29 01:32:00,
2013-12-28 18:40:00,59.0,5.0,30.04,ESE,104,10.0,19.0,11,-99.99,,,-99.99,0.000000,,2013-12-29 02:40:00,
2013-12-28 20:22:00,60.0,1.0,30.05,East,89,2.0,5.0,9,-99.99,,,-99.99,0.000000,,2013-12-29 04:22:00,
2013-12-28 20:33:00,60.0,1.0,30.05,East,89,2.0,5.0,9,-99.99,,,-99.99,0.000000,,2013-12-29 04:33:00,
2013-12-28 21:23:00,59.0,3.0,30.07,East,100,10.0,25.0,10,-99.99,,,-99.99,0.000000,,2013-12-29 05:23:00,
2013-12-28 21:33:00,59.0,3.0,30.07,East,100,10.0,25.0,10,-99.99,,,-99.99,0.000000,,2013-12-29 05:33:00,